Hilo, HI

12:41 AM HST on May 29, 2017 (GMT -1000)
Hilo International

Weather History for PHTO - March, 2014

Change the Weather History Date:

Monday, March 10, 2014

  Actual Average Record
Temperature  
Mean Temperature 74 °F 72 °F  
Max Temperature 80 °F 79 °F 87 °F (1986)
Min Temperature 68 °F 64 °F 57 °F (1972)
Degree Days  
Heating Degree Days 0 0  
Month to date heating degree days 0 0  
Since 1 July heating degree days 0 0  
Cooling Degree Days 9 7  
Month to date cooling degree days 78 67  
Year to date cooling degree days 536 437  
Growing Degree Days 23 (Base 50)    
Moisture  
Dew Point 69 °F    
Average Humidity 87    
Maximum Humidity 100    
Minimum Humidity 74    
Precipitation  
Precipitation 2.02 in 0.45 in 4.89 in (1953)
Month to date precipitation 4.56 4.14  
Year to date precipitation 12.79 22.96  
Snow  
Snow 0.00 in - - ()
Month to date snowfall 0.0  
Since 1 July snowfall 0.0  
Snow Depth 0.00 in    
Sea Level Pressure  
Sea Level Pressure 30.03 in    
Wind  
Wind Speed 6 mph (West)    
Max Wind Speed 12 mph    
Max Gust Speed 14 mph    
Visibility 6 miles    
Events Rain    
T = Trace of Precipitation, MM = Missing Value Source: NWS Daily Summary

Daily Weather History Graph

Daily Weather History Graph

Search for Another Location

Airport or City:

Trip Planner

Search our weather history database for the weather conditions in past years. The results will help you decide how hot, cold, wet, or windy it might be!

Date:

Astronomy

Mar. 10, 2014 Rise Set
Actual Time 6:32 AM HST 6:28 PM HST
Civil Twilight 6:10 AM HST 6:50 PM HST
Nautical Twilight 5:45 AM HST 7:15 PM HST
Astronomical Twilight 5:19 AM HST 7:41 PM HST
Moon 1:51 PM HST (3/10) 2:21 AM HST (3/10)
Length of Visible Light 12h 39m
Length of Day
11h 55m
Waxing Gibbous, 72% of the Moon is Illuminated
Mar 10
Waxing Gibbous
Mar 16
Full
Mar 23
Last Quarter
Mar 30
New
Apr 6
First Quarter

Hourly Weather History & Observations

Time (HST) Temp. Dew Point Humidity Pressure Visibility Wind Dir Wind Speed Gust Speed Precip Events Conditions
12:53 AM 72.0 °F 69.1 °F 91% 30.06 in 7.0 mi Calm Calm - 0.02 in Rain Light Rain
1:53 AM 71.1 °F 70.0 °F 96% 30.04 in 7.0 mi West 5.8 mph - 0.01 in Rain Light Rain
2:15 AM 71.1 °F 70.0 °F 96% 30.04 in 5.0 mi WSW 5.8 mph - 0.00 in Rain Light Rain
2:31 AM 69.1 °F 69.1 °F 100% 30.04 in 2.5 mi SW 6.9 mph - 0.10 in Rain Heavy Rain
2:36 AM 70.0 °F 70.0 °F 100% 30.04 in 1.8 mi WSW 8.1 mph - 0.20 in Rain Heavy Rain
2:48 AM 69.8 °F 69.8 °F 100% 30.04 in 1.2 mi SW 4.6 mph - 0.36 in Rain Heavy Rain
2:53 AM 69.1 °F 69.1 °F 100% 30.04 in 1.2 mi South 10.4 mph - 0.49 in Rain Heavy Rain
2:58 AM 69.1 °F 68.0 °F 96% 30.03 in 2.0 mi South 6.9 mph - 0.10 in Rain Heavy Rain
3:07 AM 69.1 °F 68.0 °F 96% 30.03 in 5.0 mi Calm Calm - 0.13 in Rain Light Rain
3:15 AM 69.1 °F 68.0 °F 96% 30.03 in 5.0 mi West 5.8 mph - 0.14 in Rain Light Rain
3:44 AM 69.1 °F 69.1 °F 100% 30.03 in 4.0 mi West 9.2 mph - 0.17 in Rain Rain
3:53 AM 69.1 °F 69.1 °F 100% 30.02 in 4.0 mi West 8.1 mph - 0.21 in Rain Heavy Rain
4:23 AM 69.1 °F 69.1 °F 100% 30.02 in 2.5 mi West 8.1 mph - 0.20 in Rain Heavy Rain
4:53 AM 68.0 °F 68.0 °F 100% 30.03 in 2.5 mi West 9.2 mph - 0.32 in Rain Heavy Rain
5:07 AM 68.0 °F 68.0 °F 100% 30.04 in 4.0 mi NW 4.6 mph - 0.09 in Rain Rain
5:18 AM 68.0 °F 68.0 °F 100% 30.04 in 1.8 mi NNW 3.5 mph - 0.16 in Rain Heavy Rain
5:38 AM 68.0 °F 68.0 °F 100% 30.04 in 3.0 mi NW 6.9 mph - 0.50 in Rain Heavy Rain
5:53 AM 68.0 °F 68.0 °F 100% 30.04 in 3.0 mi NW 10.4 mph - 0.56 in Rain Heavy Rain
6:00 AM 68.0 °F 68.0 °F 100% 30.05 in 3.0 mi NW 8.1 mph - 0.04 in Rain Heavy Rain
6:53 AM 68.0 °F 68.0 °F 100% 30.06 in 8.0 mi West 6.9 mph - 0.14 in Rain Light Rain
7:19 AM 69.1 °F 69.1 °F 100% 30.07 in 10.0 mi WSW 4.6 mph - 0.01 in   Overcast
7:53 AM 68.0 °F 68.0 °F 100% 30.08 in 8.0 mi WSW 6.9 mph - 0.01 in Rain Light Rain
8:16 AM 69.1 °F 69.1 °F 100% 30.07 in 10.0 mi West 5.8 mph - 0.00 in   Mostly Cloudy
8:53 AM 71.1 °F 69.1 °F 93% 30.08 in 10.0 mi West 6.9 mph - 0.00 in   Mostly Cloudy
9:00 AM 72.0 °F 69.1 °F 91% 30.08 in 10.0 mi SW 3.5 mph - N/A   Mostly Cloudy
9:53 AM 73.9 °F 69.1 °F 85% 30.08 in 10.0 mi Calm Calm - 0.00 in   Mostly Cloudy
10:53 AM 77.0 °F 70.0 °F 79% 30.06 in 10.0 mi Variable 3.5 mph - N/A   Mostly Cloudy
11:53 AM 73.0 °F 70.0 °F 90% 30.05 in 7.0 mi ENE 5.8 mph - 0.00 in Rain Light Rain
12:15 PM 72.0 °F 70.0 °F 93% 30.04 in 2.5 mi East 5.8 mph - 0.07 in Rain Heavy Rain
12:38 PM 73.0 °F 71.1 °F 93% 30.03 in 5.0 mi East 4.6 mph - 0.24 in Rain Rain
12:53 PM 75.0 °F 72.0 °F 90% 30.02 in 10.0 mi Variable 3.5 mph - 0.26 in Rain Light Rain
1:53 PM 78.1 °F 70.0 °F 76% 29.98 in 10.0 mi NE 8.1 mph - 0.00 in   Mostly Cloudy
2:53 PM 75.0 °F 69.1 °F 82% 29.96 in 10.0 mi North 6.9 mph - N/A   Mostly Cloudy
3:53 PM 75.0 °F 70.0 °F 84% 29.95 in 10.0 mi NNE 4.6 mph - N/A   Overcast
4:53 PM 73.9 °F 71.1 °F 91% 29.96 in 10.0 mi NNE 5.8 mph - 0.00 in Rain Light Rain
5:38 PM 73.9 °F 70.0 °F 87% 29.97 in 10.0 mi ENE 11.5 mph 16.1 mph 0.00 in   Overcast
5:48 PM 71.6 °F 69.8 °F 94% 29.97 in 1.8 mi ENE 8.1 mph - 0.08 in Rain Heavy Rain
5:53 PM 71.1 °F 70.0 °F 96% 29.97 in 1.5 mi East 8.1 mph - 0.12 in Rain Heavy Rain
6:05 PM 71.1 °F 71.1 °F 100% 29.98 in 5.0 mi Calm Calm - 0.09 in Rain Light Rain
6:16 PM 72.0 °F 71.1 °F 97% 29.98 in 5.0 mi West 5.8 mph - 0.10 in Rain Light Rain
6:22 PM 71.1 °F 71.1 °F 100% 29.98 in 5.0 mi WNW 8.1 mph - 0.10 in Rain Light Rain
6:53 PM 70.0 °F 70.0 °F 100% 29.99 in 3.0 mi WNW 10.4 mph - 0.27 in Rain Rain
7:05 PM 70.0 °F 70.0 °F 100% 29.99 in 5.0 mi West 6.9 mph - 0.05 in Rain Light Rain
7:53 PM 70.0 °F 69.1 °F 97% 30.01 in 10.0 mi WSW 4.6 mph - 0.05 in   Overcast
8:53 PM 70.0 °F 69.1 °F 97% 30.03 in 10.0 mi WSW 3.5 mph - N/A   Mostly Cloudy
9:53 PM 69.1 °F 68.0 °F 96% 30.04 in 10.0 mi WSW 3.5 mph - N/A   Overcast
10:53 PM 69.1 °F 66.9 °F 93% 30.05 in 10.0 mi West 3.5 mph - N/A   Overcast
11:53 PM 68.0 °F 66.9 °F 96% 30.05 in 10.0 mi WSW 3.5 mph - N/A   Mostly Cloudy